Regional Weather Roundup
Issued by NWS Upton, NY

Current Version | Previous Version | Graphics & Text | Print | Product List | Glossary Off
Versions: 1 2 3 4 5 6 7 8 9 10 11 12 13 14 15 16 17 18 19 20 21 22 23 24 25 26 27 28
000 ASUS41 KOKX 241904 RWROKX REGIONAL WEATHER ROUNDUP NATIONAL WEATHER SERVICE NEW YORK NY 300 PM EDT SUN JUL 24 2016 NOTE: "FAIR" INDICATES FEW OR NO CLOUDS BELOW 12,000 FEET WITH NO SIGNIFICANT WEATHER AND/OR OBSTRUCTIONS TO VISIBILITY. NYZ071-072-176-178-NJZ106-104-242000- NEW YORK CITY METRO AREA CITY SKY/WX TMP DP RH WIND PRES REMARKS Central Park SUNNY 93 58 30 CALM 29.96F HX 92 LaGuardia APRT PTSUNNY 90 63 40 SE18 29.93F HX 91 Kennedy INTL PTSUNNY 84 63 49 S20 29.97F Newark/Liberty PTSUNNY 94 55 26 NW8G18 29.94F HX 92 BRNX BOT. GARD N/A 93 55 27 W3 29.94F HX 91 Wall St Helipt CLEAR 91 63 38 SW10 29.95F HX 92 Teterboro SUNNY 94 53 25 VRB7 29.92F HX 91 $$ NYZ177-179-078>081-242000- LONG ISLAND NEW YORK CITY SKY/WX TMP DP RH WIND PRES REMARKS FARMINGDALE MOSUNNY 86 65 49 S15 29.96F ISLIP PTSUNNY 84 63 49 S13 29.96F SHIRLEY CLOUDY 85 62 46 S14 29.97S RIVERHEAD NOT AVBL WESTHAMPTON CLOUDY 82 61 48 SW12 29.98F SOUTHAMPTON N/A 81 66 61 SW6 29.93F BRIDGEHAMPTON N/A 86 64 48 S1 29.95F EAST HAMPTON FAIR 84 63 49 SW10 29.95F MONTAUK POINT N/A 82 66 58 S6 29.97S $$ NYZ052-065-067-242000- HUDSON VALLEY CITY SKY/WX TMP DP RH WIND PRES REMARKS WHITE PLAINS MOSUNNY 92 56 29 VRB3 29.95F HX 90 NEWBURGH MOSUNNY 90 59 35 VRB6 29.97F MONTGOMERY MOSUNNY 92 56 29 CALM 29.95F HX 90 POUGHKEEPSIE SUNNY 92 58 31 MISG 29.93F HX 91 ALBANY PTSUNNY 86 56 35 VRB3 29.96F $$ NJZ001-105-106-008-010-013-015-019>022-104-242000- NEW JERSEY CITY SKY/WX TMP DP RH WIND PRES REMARKS NEWARK/LIBERTY PTSUNNY 94 55 26 NW8G18 29.94F HX 92 TETERBORO SUNNY 94 53 25 VRB7 29.92F HX 91 CALDWELL MOSUNNY 92 57 30 W9 29.95F HX 90 MORRISTOWN PTSUNNY 90 59 35 NW10 29.96F SOMERVILLE MOSUNNY 93 60 33 NW6 29.94F HX 93 SUSSEX MOSUNNY 91 58 32 W5 29.97F HX 90 ANDOVER N/A 88 61 40 CALM 29.98F TRENTON SUNNY 92 60 34 N7 29.95F HX 91 MILLVILLE MOSUNNY 89 63 41 VRB6 29.98F HX 90 ATLANTIC CITY SUNNY 88 59 37 S13 29.98 WRIGHTSTOWN SUNNY 92 58 31 NW9 29.93F HX 91 TOMS RIVER MOSUNNY 90 70 51 SE10 29.96F HX 95 BELMAR SUNNY 86 65 49 SE13 29.98F $$ PAZ047>061-062-071-242000- EASTERN PENNSYLVANIA CITY SKY/WX TMP DP RH WIND PRES REMARKS PHILADELPHIA MOSUNNY 93 59 31 SW9 29.96F HX 92 ALLENTOWN SUNNY 94 59 31 VRB6 29.96F HX 93 SCRANTON SUNNY 91 60 35 SW9 29.98F HX 90 $$ CTZ002-004>006-009-010-012-RIZ004-006-007-MAZ004-011-015-242000- SOUTHERN NEW ENGLAND IN CT CITY SKY/WX TMP DP RH WIND PRES REMARKS BRADLEY INTL PTSUNNY 91 56 30 W6 29.93F HARTFORD SUNNY 93 57 29 W3 29.92F HX 91 DANBURY MOSUNNY 90 54 29 NW6 29.97F WTRBRY/OXFORD PTSUNNY 86 54 32 N13G18 30.00F BRIDGEPORT MOSUNNY 85 64 49 S9 29.94F MERIDEN MOSUNNY 91 55 29 VRB5 29.94F NEW HAVEN PTSUNNY 84 63 49 S10G16 29.95F CHESTER FAIR 88 55 33 NW8G14 29.96S GROTON MOSUNNY 82 65 56 SW12 29.94F WILLIMANTIC NOT AVBL IN RI CITY SKY/WX TMP DP RH WIND PRES REMARKS PROVIDENCE MOSUNNY 84 65 52 S14 29.94F BLOCK ISLAND MOSUNNY 79 64 60 SW15 29.96F WESTERLY SUNNY 84 61 45 SW10 29.95S IN MA CITY SKY/WX TMP DP RH WIND PRES REMARKS BOSTON PTSUNNY 90 55 30 NW8G16 29.91F WORCESTER SUNNY 83 57 41 VRB6 29.97F WESTFIELD SUNNY 91 57 31 VRB6 29.94F PROVINCETOWN CLOUDY 82 61 48 SW7 29.94F NANTUCKET MOSUNNY 77 65 66 SW14 29.95S $$ ANZ330-335-338-340-345-350-353-355-242000- COASTAL MARINE OBSERVATIONS STATION/POSITION TIME SKY/WX TEMP WIND PRES VSBY WAVE AIR SEA DIR/SP/G HT/PER (UTC) (F) (DEG/KT/KT) (MB) (MI) (FT/S) NY HARB ENTRANCE 1750 77 75 170/ 12/ 14 1015.0 2/ 6 20S FIRE ISLAND 1750 76 75 180/ 6/ 8 1015.2 2/ 6 GREAT SOUTH BAY 1800 77 82 190/ 12/ 16 N/A 23 SSW MONTAUK P 1750 74 74 220/ 6/ 8 1015.4 2/ 6 15 E BARNEGAT LI 1822 77 N/A 2/ 6 HUDSON CANYON 1750 78 78 1015.8 3/ 6 KINGS POINT 1800 88 72 1014.3 EXECUTION ROCKS 1800 83 140/ 4/ 6 N/A CENTRAL LI SOUND 1800 77 75 220/ 6/ 8 N/A 1 EASTERN LI SOUND 1800 74 69 230/ 6/ 8 N/A ROBBINS REEF 1800 78 170/ 18/ 19 1014.0 $$ >>>>>>>>>>>>>>>>>>>>>>>>>>>> KEY <<<<<<<<<<<<<<<<<<<<<<<<<<< > < > SKY/WX - SKY CONDITION/PRESENT WEATHER < > TMP - TEMPERATURE IN FAHRENHEIT < > DP - DEWPOINT IN FAHRENHEIT < > RH - RELATIVE HUMIDITY IN PERCENT < > WIND - DIRECTION AND SPEED IN MPH < > PRES - MEAN SEA LEVEL PRESSURE IN INCHES OF HG < > WCI - WIND CHILL INDEX < > VSB - VISIBILITY IN MILES < > HX - HEAT INDEX < > TC - TEMPERATURE IN CELSIUS < > VRB - VARIABLE WIND DIRECTION < > < >>>>>>>>>>>>>>>>>>>>>>>>>>>> KEY <<<<<<<<<<<<<<<<<<<<<<<<<<<

USA.gov is the U.S. government's official web portal to all federal, state and local government web resources and services.